Home   Weather   Tiraspol   Past weeks

Flag for Moldova Past Weather in Tiraspol, Moldova — Yesterday and Last 2 Weeks

Now
46 °F

Clear.


Feels Like: 46 °F
Forecast: 44 / 60 °F
Wind: No wind

Location: Chisinau International Airport

Current Time: Feb 23, 2017 at 8:30:52 pm

Latest Report: Feb 23, 2017 at 7:30 pm


Visibility: 10 mi

Pressure: 29.71 "Hg

Humidity: 71%

Dew Point: 37 °F

Location of TiraspolLocation

Past Weather in Tiraspol — Graph

°F

Tiraspol Temperature Yesterday

Maximum temperature yesterday: 46 °F (at 11:30 am)
Minimum temperature yesterday: 37 °F (at 12:00 am)
Average temperature yesterday: 42 °F

High & Low Weather Summary for the Past Weeks

 TemperatureHumidityPressure
High57 °F (Feb 23, 12:00 pm)100% (Feb 17, 3:30 am)30.72 "Hg (Feb 17, 3:30 am)
Low10 °F (Feb 10, 6:30 am)39% (Feb 9, 3:00 pm)29.56 "Hg (Feb 23, 7:00 am)
Average30 °F76%30.30 "Hg
* Reported Feb 8 7:00 pm — Feb 23 7:00 pm, Tiraspol, Weather by CustomWeather, © 2017

Note: Actual official high and low records may vary slightly from our data, if they occured in-between our weather recording intervals... More about our weather records

Advertising

Tiraspol Weather History for the Previous 24 Hours

Scroll right to see more
 ConditionsComfort  
Time TempWeatherWind HumidityBarometerVisibility
7:00 pm
Thu, Feb 23
45 °FClear.No wind76%29.71 "Hg10 mi
6:30 pm46 °FClear.No wind71%29.71 "Hg10 mi
6:00 pm48 °FClear.2 mph66%29.71 "Hg10 mi
5:30 pm48 °FSunny.2 mph66%29.71 "Hg10 mi
5:00 pm50 °FSunny.2 mph62%29.68 "Hg10 mi
4:30 pm50 °FSunny.7 mph62%29.68 "Hg10 mi
4:00 pm52 °FSunny.9 mph58%29.68 "Hg10 mi
3:30 pm52 °FSunny.10 mph58%29.68 "Hg10 mi
3:00 pm52 °FSunny.10 mph62%29.68 "Hg10 mi
2:30 pm52 °FSunny.9 mph62%29.65 "Hg10 mi
2:00 pm54 °FPassing clouds.7 mph58%29.68 "HgN/A
1:30 pm55 °FSunny.8 mph55%29.65 "Hg10 mi
1:00 pm55 °FSunny.10 mph55%29.65 "Hg10 mi
12:30 pm55 °FSunny.13 mph59%29.65 "Hg10 mi
12:00 pm57 °FSunny.15 mph55%29.65 "Hg10 mi
11:30 am55 °FSunny.16 mph59%29.62 "Hg10 mi
11:00 am55 °FSunny.14 mph59%29.62 "Hg10 mi
10:30 am54 °FSunny.15 mph58%29.62 "Hg10 mi
10:00 am52 °FSunny.16 mph62%29.62 "Hg10 mi
9:30 am50 °FPassing clouds.12 mph67%29.62 "HgN/A
9:00 am48 °FPassing clouds.12 mph66%29.62 "HgN/A
8:30 am46 °FPassing clouds.10 mph71%29.59 "HgN/A
8:00 am45 °FPassing clouds.10 mph71%29.59 "HgN/A
7:30 am45 °FPassing clouds.14 mph71%29.59 "HgN/A
7:00 am45 °FSunny.16 mph71%29.56 "Hg10 mi
6:00 am45 °FClear.13 mph71%29.59 "Hg10 mi
5:30 am45 °FClear.14 mph71%29.59 "Hg10 mi
5:00 am45 °FClear.14 mph71%29.59 "Hg10 mi
4:30 am43 °FClear.8 mph76%29.59 "Hg10 mi
4:00 am43 °FClear.14 mph76%29.59 "Hg10 mi
3:30 am43 °FClear.13 mph76%29.62 "Hg10 mi
3:00 am43 °FClear.14 mph71%29.62 "Hg10 mi
2:30 am43 °FClear.9 mph71%29.65 "Hg10 mi
2:00 am41 °FClear.7 mph76%29.68 "Hg10 mi
1:30 am41 °FClear.10 mph76%29.65 "Hg10 mi
1:00 am43 °FClear.13 mph66%29.68 "Hg10 mi
12:30 am41 °FClear.12 mph70%29.71 "Hg10 mi
12:00 am43 °FClear.16 mph66%29.71 "Hg10 mi
11:30 pm
Wed, Feb 22
41 °FClear.13 mph70%29.71 "Hg10 mi
11:00 pm43 °FClear.14 mph66%29.71 "Hg10 mi
10:30 pm41 °FClear.12 mph70%29.71 "Hg10 mi
10:00 pm41 °FPassing clouds.9 mph70%29.74 "HgN/A
9:30 pm41 °FClear.10 mph70%29.74 "Hg10 mi
9:00 pm39 °FClear.14 mph75%29.74 "Hg10 mi
8:30 pm39 °FClear.9 mph75%29.77 "Hg10 mi
8:00 pm39 °FClear.10 mph70%29.77 "Hg10 mi
Weather by CustomWeather, © 2017

See weather overviewHow to use our weather pages